Waarnemingen

Advertentie
Mijn weer
Harstena, Zweden (2563): temperatuur & dauwpunt: 17.09.2018 02:00:00 - 23.09.2018 02:00:00 (CEST)Harstena, Zweden (2563): windsnelheid & windstoten: 17.09.2018 02:00:00 - 23.09.2018 02:00:00 (CEST)Harstena, Zweden (2563): windrichting: 17.09.2018 02:00:00 - 23.09.2018 02:00:00 (CEST)Harstena, Zweden (2563): luchtdruk: 17.09.2018 02:00:00 - 23.09.2018 02:00:00 (CEST)Harstena, Zweden (2563): zicht: 17.09.2018 02:00:00 - 23.09.2018 02:00:00 (CEST)Harstena, Zweden (2563): neerslag: 17.09.2018 02:00:00 - 23.09.2018 02:00:00 (CEST)
Datum & Tijd tt [°C] td [°C] ff [km/u] ff [kn] fx [km/u] fx [kn] dd ppp [hPa] vv [km] rr [mm]
23.09.2018 02:00:00 8,8 6,1 15 8 32 18 ZW 999,4 46 0,0
23.09.2018 01:00:00 8,5 5,6 17 9 32 18 ZW 999,7 50 0,0
23.09.2018 00:00:00 8,4 5,2 18 10 35 19 ZW 999,9 50 0,0
22.09.2018 23:00:00 8,6 5,2 22 12 40 21 ZW 1000,1 50 0,0
22.09.2018 22:00:00 9,0 5,0 19 10 44 24 ZW 1000,6 50 0,0
22.09.2018 21:00:00 9,7 4,3 25 13 44 24 ZW 1000,4 50 0,0
22.09.2018 20:00:00 9,8 4,8 22 12 48 26 ZW 1000,4 50 0,0
22.09.2018 19:00:00 11,4 3,7 25 13 48 26 WZW 1000,4 50 0,0
22.09.2018 18:00:00 12,3 4,8 22 12 56 31 WZW 1000,3 50 0,0
22.09.2018 17:00:00 13,3 3,9 26 14 63 34 WZW 1000,5 50 0,0
22.09.2018 16:00:00 13,8 3,6 27 14 63 34 WZW 1000,5 50 0,0
22.09.2018 15:00:00 15,2 3,7 27 15 61 33 WZW 1000,0 49 0,0
22.09.2018 14:00:00 15,6 4,3 29 15 60 32 WZW 999,4 34 0,0
22.09.2018 13:00:00 15,1 3,3 33 18 65 35 WZW 998,7 40 0,0
22.09.2018 12:00:00 14,5 3,3 36 19 68 37 W 997,9 38 0,0
22.09.2018 11:00:00 13,3 4,4 34 19 68 37 WZW 997,3 29 0,0
22.09.2018 10:00:00 12,7 5,4 31 17 59 32 WZW 996,3 22 0,0
22.09.2018 09:00:00 12,3 5,7 27 15 55 30 WZW 995,3 25 0,0
22.09.2018 08:00:00 11,7 6,0 27 15 59 32 ZW 994,7 27 0,0
22.09.2018 07:00:00 11,0 5,7 32 17 59 32 ZW 993,8 46 0,0
22.09.2018 06:00:00 11,0 5,3 30 16 59 32 ZW 993,6 50 0,0
22.09.2018 05:00:00 10,9 5,8 31 17 53 29 ZW 993,6 46 0,0
22.09.2018 04:00:00 10,8 6,4 34 19 53 29 ZW 993,6 50 0,0
22.09.2018 03:00:00 10,4 7,1 29 16 51 28 ZW 993,8 42 0,0
22.09.2018 02:00:00 10,2 7,8 31 17 48 26 ZZW 993,8 25 0,0
22.09.2018 01:00:00 9,9 8,5 30 16 46 25 ZZW 993,8 18 0,0
22.09.2018 00:00:00 - - - - 40 22 - - - -
21.09.2018 23:00:00 9,8 9,2 22 12 40 22 Z 994,7 16 0,0
21.09.2018 22:00:00 10,1 9,5 22 12 34 18 Z 994,8 18 0,0
21.09.2018 21:00:00 10,7 10,2 14 8 71 39 ZZW 994,6 10 0,0
21.09.2018 20:00:00 12,9 11,3 23 12 71 39 WZW 994,6 6 0,0
21.09.2018 19:00:00 16,4 10,3 19 10 48 26 WZW 993,3 29 0,0
21.09.2018 18:00:00 13,8 11,3 30 16 55 30 Z 993,9 15 0,0
21.09.2018 17:00:00 14,5 11,5 35 19 55 30 Z 994,5 17 0,0
21.09.2018 16:00:00 16,1 12,3 30 16 54 29 Z 995,0 19 0,0
21.09.2018 15:00:00 15,4 12,2 30 16 50 27 Z 996,1 16 0,0
21.09.2018 14:00:00 14,8 11,9 28 15 43 23 Z 997,0 15 0,0
21.09.2018 13:00:00 15,8 12,4 23 12 34 18 ZZO 998,6 18 0,0
21.09.2018 12:00:00 14,2 12,4 21 11 32 18 ZZO 1000,3 12 0,0
21.09.2018 11:00:00 13,4 11,8 19 10 34 18 Z 1001,5 12 0,0
21.09.2018 10:00:00 13,7 12,3 19 10 34 18 Z 1002,9 14 0,0
21.09.2018 09:00:00 12,6 11,8 21 11 34 18 Z 1003,6 12 0,0
21.09.2018 08:00:00 12,7 12,1 19 10 34 19 Z 1004,3 11 0,0
21.09.2018 07:00:00 12,8 12,3 22 12 34 19 Z 1005,0 8 0,0
21.09.2018 06:00:00 12,0 11,4 16 9 29 16 Z 1005,7 9 0,0
21.09.2018 05:00:00 11,9 11,4 18 10 31 17 Z 1006,9 11 0,0
21.09.2018 04:00:00 12,7 12,4 21 11 31 17 ZZW 1007,7 18 0,0
21.09.2018 03:00:00 11,8 11,3 14 8 19 10 Z 1008,3 50 0,0
21.09.2018 02:00:00 11,4 10,8 9 5 17 9 ZZW 1009,1 49 0,0
21.09.2018 01:00:00 11,2 10,3 10 5 18 10 ZZW 1009,6 50 0,0
21.09.2018 00:00:00 11,2 9,8 10 5 23 13 ZZW 1009,9 32 0,0
20.09.2018 23:00:00 12,3 10,2 14 8 24 13 ZW 1010,2 34 0,0
20.09.2018 22:00:00 13,5 10,7 16 9 24 13 ZW 1010,1 44 0,0
20.09.2018 21:00:00 14,6 11,2 14 8 27 15 ZW 1009,6 50 0,0
20.09.2018 20:00:00 15,0 12,1 14 8 29 15 ZW 1009,5 50 0,0
20.09.2018 19:00:00 14,7 12,6 15 8 34 18 ZW 1009,0 50 0,0
20.09.2018 18:00:00 14,3 12,3 19 10 34 18 ZW 1008,5 47 0,0
20.09.2018 17:00:00 15,1 13,0 18 10 33 18 ZW 1008,7 20 0,0
20.09.2018 16:00:00 15,0 11,2 20 11 35 19 ZZW 1008,4 20 0,0
20.09.2018 15:00:00 16,4 10,0 16 9 35 19 ZZW 1008,4 30 0,0
20.09.2018 14:00:00 19,7 9,0 19 10 33 18 ZW 1008,9 33 0,0
20.09.2018 13:00:00 19,4 7,5 15 8 38 20 WZW 1009,0 33 0,0
20.09.2018 12:00:00 19,2 6,7 16 9 38 20 WZW 1009,1 31 0,0
20.09.2018 11:00:00 18,9 5,7 20 11 38 20 WZW 1009,1 34 0,0
20.09.2018 10:00:00 18,0 9,6 19 10 28 15 ZW 1008,5 36 0,0
20.09.2018 09:00:00 13,9 11,1 16 9 29 15 ZZW 1008,4 27 0,0
20.09.2018 08:00:00 12,3 10,5 14 8 29 15 ZZW 1008,1 20 0,0
20.09.2018 07:00:00 12,7 10,8 21 11 28 15 ZZW 1007,7 24 0,0
20.09.2018 06:00:00 11,8 10,4 17 9 32 18 Z 1007,4 19 0,0
20.09.2018 05:00:00 12,7 10,8 18 10 35 19 ZZW 1007,8 21 0,0
20.09.2018 04:00:00 13,8 11,5 23 12 35 19 ZZW 1007,5 24 0,0
20.09.2018 03:00:00 13,4 11,5 20 11 34 18 ZZW 1007,9 20 0,0
20.09.2018 02:00:00 12,3 10,9 18 10 38 21 Z 1008,4 16 0,0
20.09.2018 01:00:00 14,1 11,8 26 14 38 21 ZZW 1008,9 24 0,0
20.09.2018 00:00:00 13,9 11,6 18 10 29 16 ZZW 1009,4 31 0,0
19.09.2018 23:00:00 14,4 11,5 19 11 27 15 ZZW 1009,9 35 0,0
19.09.2018 22:00:00 13,8 11,0 15 8 27 14 ZZW 1010,2 36 0,0
19.09.2018 21:00:00 14,9 11,1 19 10 26 14 ZW 1010,3 33 0,0
19.09.2018 20:00:00 16,1 11,7 15 8 23 13 ZZW 1010,4 31 0,0
19.09.2018 19:00:00 16,2 11,4 15 8 24 13 ZW 1010,5 33 0,0
19.09.2018 18:00:00 17,9 11,2 14 7 30 16 ZW 1010,1 35 0,0
19.09.2018 17:00:00 21,3 11,6 11 6 33 18 WZW 1010,5 46 0,0
19.09.2018 16:00:00 22,0 11,4 17 9 38 21 WZW 1010,3 44 0,0
19.09.2018 15:00:00 21,8 10,9 22 12 41 22 WZW 1010,3 45 0,0
19.09.2018 14:00:00 21,9 10,7 19 10 41 22 WZW 1010,1 37 0,0
19.09.2018 13:00:00 21,1 11,1 22 12 38 20 WZW 1009,7 38 0,0
19.09.2018 12:00:00 20,4 11,1 18 10 37 20 WZW 1009,7 41 0,0
19.09.2018 11:00:00 19,5 11,3 16 9 37 20 W 1009,5 36 0,0
19.09.2018 10:00:00 18,4 12,4 18 10 36 19 W 1009,4 30 0,0
19.09.2018 09:00:00 15,0 12,0 11 6 19 10 ZZW 1008,7 28 0,0
19.09.2018 08:00:00 13,3 11,4 11 6 16 9 Z 1008,3 23 0,0
19.09.2018 07:00:00 13,0 11,2 10 5 20 11 ZZW 1008,0 27 0,0
19.09.2018 06:00:00 12,7 10,8 12 6 20 11 ZZW 1007,5 26 0,0
19.09.2018 05:00:00 12,3 10,5 13 7 20 11 ZW 1007,5 23 0,0
19.09.2018 04:00:00 12,1 10,2 13 7 20 11 ZZW 1007,5 23 0,0
19.09.2018 03:00:00 12,3 10,2 13 7 29 16 ZZW 1007,5 24 0,0
19.09.2018 02:00:00 12,8 10,3 13 7 29 16 ZZW 1007,7 30 0,0
19.09.2018 01:00:00 12,9 10,3 19 10 25 14 ZZW 1007,7 31 0,0
19.09.2018 00:00:00 13,1 10,3 15 8 26 14 ZZW 1008,0 28 0,0
18.09.2018 23:00:00 13,6 10,4 19 10 26 14 ZZW 1008,0 39 0,0
18.09.2018 22:00:00 13,2 10,2 16 9 22 12 Z 1008,6 40 0,0
18.09.2018 21:00:00 13,6 10,2 14 8 24 13 ZZW 1008,7 39 0,0
18.09.2018 20:00:00 14,0 10,4 15 8 24 13 ZZW 1008,8 40 0,0
18.09.2018 19:00:00 13,5 10,7 16 8 27 15 Z 1008,8 32 0,0
18.09.2018 18:00:00 15,0 10,8 13 7 27 15 ZZW 1009,0 43 0,0
18.09.2018 17:00:00 16,1 10,8 14 7 24 13 ZZW 1009,4 41 0,0
18.09.2018 16:00:00 16,9 11,2 14 8 24 13 ZZW 1009,8 47 0,0
18.09.2018 15:00:00 17,7 11,7 14 8 24 13 ZZW 1010,5 41 0,0
18.09.2018 14:00:00 18,9 11,7 13 7 21 12 Z 1011,1 45 0,0
18.09.2018 13:00:00 18,4 12,2 12 6 19 10 Z 1011,7 23 0,0
18.09.2018 12:00:00 18,1 12,3 10 6 20 11 Z 1012,1 28 0,0
18.09.2018 11:00:00 16,4 12,2 12 6 20 11 Z 1012,5 40 0,0
18.09.2018 10:00:00 14,5 11,3 11 6 18 10 Z 1012,9 38 0,0
18.09.2018 09:00:00 13,5 11,4 13 7 17 9 ZZW 1013,1 35 0,0
18.09.2018 08:00:00 12,3 10,5 8 4 17 9 Z 1013,3 40 0,0
18.09.2018 07:00:00 12,1 9,8 13 7 17 9 ZZW 1013,3 39 0,0
18.09.2018 06:00:00 11,1 9,7 9 5 16 9 Z 1013,6 33 0,0
18.09.2018 05:00:00 11,9 9,8 11 6 16 9 Z 1013,8 41 0,0
18.09.2018 04:00:00 12,0 9,7 9 5 17 9 ZZW 1014,2 40 0,0
18.09.2018 03:00:00 12,1 9,3 6 4 17 9 ZW 1014,2 45 0,0
18.09.2018 02:00:00 12,3 9,1 9 5 16 8 ZW 1014,5 43 0,0
18.09.2018 01:00:00 13,1 8,2 8 4 16 9 WZW 1014,8 50 0,0
18.09.2018 00:00:00 13,2 7,8 8 4 17 9 WZW 1015,0 50 0,0
17.09.2018 23:00:00 13,7 7,5 9 5 20 11 WZW 1014,7 50 0,0
17.09.2018 22:00:00 13,8 7,3 8 4 20 11 WZW 1014,7 50 0,0
17.09.2018 21:00:00 14,0 7,3 9 5 20 11 W 1014,5 50 0,0
17.09.2018 20:00:00 14,6 7,2 11 6 30 16 WZW 1014,0 50 0,0
17.09.2018 19:00:00 15,0 6,8 12 6 33 18 W 1013,3 50 0,0
17.09.2018 18:00:00 15,4 6,4 12 7 43 23 W 1013,0 50 0,0
17.09.2018 17:00:00 15,9 6,1 15 8 45 25 W 1012,5 50 0,0
17.09.2018 16:00:00 16,4 6,2 23 12 51 28 W 1012,1 50 0,0
17.09.2018 15:00:00 16,9 6,1 22 12 51 28 W 1011,5 47 0,0
17.09.2018 14:00:00 16,3 7,5 21 11 45 24 W 1011,3 45 0,0
17.09.2018 13:00:00 16,1 8,6 21 11 42 23 W 1010,5 49 0,0
17.09.2018 12:00:00 16,0 9,4 22 12 51 28 W 1010,1 44 0,0
17.09.2018 11:00:00 15,5 10,7 23 13 51 28 WZW 1009,9 50 0,0
17.09.2018 10:00:00 15,5 10,7 20 11 41 22 WZW 1009,6 43 0,0
17.09.2018 09:00:00 - - - - 36 19 - - - -
17.09.2018 08:00:00 14,4 12,4 16 9 29 16 ZW 1008,7 50 0,0
17.09.2018 07:00:00 13,2 11,9 17 9 30 16 ZW 1008,5 42 0,0
17.09.2018 06:00:00 13,1 11,8 19 10 34 18 ZW 1009,1 9 0,0
17.09.2018 05:00:00 12,7 11,4 19 10 37 20 ZW 1009,5 44 0,0
17.09.2018 04:00:00 12,0 11,1 23 12 37 20 ZZW 1009,6 19 0,0
17.09.2018 03:00:00 11,8 11,2 24 13 42 23 Z 1010,6 7 0,0
17.09.2018 02:00:00 12,1 10,7 24 13 42 23 ZZW 1012,1 12 0,0

tt = temperatuur
td = dauwpunt
ff = windsnelheid
fx = windstoten
dd = windrichting
ppp = luchtdruk
vv = zicht
rr = neerslag

Weerstations in de omgeving